H1 CPF 2 NER 2022 1 6 9 006 01 glonass139 H2 1808601 9139 43687 2022 1 6 0 0 0 2022 1 9 23 45 0 900 1 1 0 0 0 1 H9 10 0 59585 0.00000 0 -18467349.882 17024259.983 -4419264.731 10 0 59585 900.00000 0 -18652476.536 17350725.050 -1237515.136 10 0 59585 1800.00000 0 -18528974.343 17418233.976 1968287.425 10 0 59585 2700.00000 0 -18135398.071 17187805.847 5135846.551 10 0 59585 3600.00000 0 -17518855.473 16630609.441 8203638.632 10 0 59585 4500.00000 0 -16732860.721 15729376.784 11112109.284 10 0 59585 5400.00000 0 -15834936.817 14479341.933 13804828.721 10 0 59585 6300.00000 0 -14884068.877 12888665.251 16229583.589 10 0 59585 7200.00000 0 -13938116.048 10978325.188 18339384.258 10 0 59585 8100.00000 0 -13051291.149 8781481.810 20093368.616 10 0 59585 9000.00000 0 -12271813.761 6342338.319 21457585.662 10 0 59585 9900.00000 0 -11639834.876 3714547.573 22405644.592 10 0 59585 10800.00000 0 -11185719.501 959229.224 22919217.884 10 0 59585 11700.00000 0 -10928758.445 -1857321.060 22988389.536 10 0 59585 12600.00000 0 -10876362.545 -4666136.236 22611842.485 10 0 59585 13500.00000 0 -11023772.488 -7398193.803 21796882.085 10 0 59585 14400.00000 0 -11354296.007 -9987035.924 20559295.340 10 0 59585 15300.00000 0 -11840062.361 -12371286.405 18923048.475 10 0 59585 16200.00000 0 -12443262.644 -14496961.462 16919828.222 10 0 59585 17100.00000 0 -13117824.194 -16319479.525 14588434.958 10 0 59585 18000.00000 0 -13811449.272 -17805287.393 11974038.609 10 0 59585 18900.00000 0 -14467932.815 -18933035.874 9127310.821 10 0 59585 19800.00000 0 -15029662.156 -19694256.413 6103449.306 10 0 59585 20700.00000 0 -15440193.618 -20093510.744 2961112.669 10 0 59585 21600.00000 0 -15646797.349 -20148007.608 -238714.150 10 0 59585 22500.00000 0 -15602862.675 -19886702.741 -3433902.037 10 0 59585 23400.00000 0 -15270061.763 -19348920.050 -6562384.409 10 0 59585 24300.00000 0 -14620179.287 -18582552.176 -9563364.842 10 0 59585 25200.00000 0 -13636529.615 -17641916.337 -12378501.750 10 0 59585 26100.00000 0 -12314900.277 -16585356.103 -14953046.566 10 0 59585 27000.00000 0 -10663980.377 -15472690.457 -17236912.824 10 0 59585 27900.00000 0 -8705254.223 -14362618.024 -19185654.956 10 0 59585 28800.00000 0 -6472363.048 -13310186.217 -20761337.334 10 0 59585 29700.00000 0 -4009960.047 -12364432.285 -21933276.451 10 0 59585 30600.00000 0 -1372105.194 -11566295.873 -22678641.652 10 0 59585 31500.00000 0 1379734.153 -10946891.223 -22982902.595 10 0 59585 32400.00000 0 4178994.488 -10526211.868 -22840114.692 10 0 59585 33300.00000 0 6956543.668 -10312322.346 -22253036.906 10 0 59585 34200.00000 0 9643319.935 -10301070.914 -21233079.469 10 0 59585 35100.00000 0 12172973.032 -10476335.165 -19800082.443 10 0 59585 36000.00000 0 14484397.801 -10810789.932 -17981929.238 10 0 59585 36900.00000 0 16524054.930 -11267164.736 -15814002.489 10 0 59585 37800.00000 0 18247982.484 -11799937.247 -13338492.823 10 0 59585 38700.00000 0 19623414.742 -12357390.711 -10603573.960 10 0 59585 39600.00000 0 20629941.233 -12883947.745 -7662460.462 10 0 59585 40500.00000 0 21260158.366 -13322681.163 -4572366.797 10 0 59585 41400.00000 0 21519787.389 -13617894.887 -1393388.454 10 0 59585 42300.00000 0 21427254.954 -13717665.035 1812672.394 10 0 59585 43200.00000 0 21012755.334 -13576233.066 4983513.202 10 0 59585 44100.00000 0 20316835.167 -13156149.156 8057545.222 10 0 59585 45000.00000 0 19388561.665 -12430074.804 10975091.323 10 0 59585 45900.00000 0 18283352.627 -11382168.189 13679543.896 10 0 59585 46800.00000 0 17060560.522 -10008993.555 16118460.288 10 0 59585 47700.00000 0 15780912.905 -8319916.092 18244574.698 10 0 59585 48600.00000 0 14503916.994 -6336965.395 20016707.456 10 0 59585 49500.00000 0 13285337.239 -4094172.742 21400554.870 10 0 59585 50400.00000 0 12174851.244 -1636409.346 22369345.187 10 0 59585 51300.00000 0 11213981.518 982226.724 22904349.044 10 0 59585 52200.00000 0 10434388.702 3700408.844 22995235.436 10 0 59585 53100.00000 0 9856596.753 6451883.328 22640267.074 10 0 59585 54000.00000 0 9489202.447 9167979.897 21846331.870 10 0 59585 54900.00000 0 9328601.460 11780228.346 20628810.133 10 0 59585 55800.00000 0 9359241.948 14222974.124 19011279.884 10 0 59585 56700.00000 0 9554394.635 16435885.643 17025065.556 10 0 59585 57600.00000 0 9877407.042 18366250.316 14708638.070 10 0 59585 58500.00000 0 10283389.310 19970964.742 12106877.084 10 0 59585 59400.00000 0 10721260.979 21218136.915 9270208.779 10 0 59585 60300.00000 0 11136072.829 22088234.117 6253634.991 10 0 59585 61200.00000 0 11471506.097 22574728.740 3115671.908 10 0 59585 62100.00000 0 11672443.645 22684215.143 -82781.631 10 0 59585 63000.00000 0 11687504.252 22435992.633 -3279624.517 10 0 59585 63900.00000 0 11471432.446 21861131.986 -6412759.399 10 0 59585 64800.00000 0 10987242.047 21001064.699 -9421300.796 10 0 59585 65700.00000 0 10208021.720 19905754.293 -12246761.409 10 0 59585 66600.00000 0 9118324.950 18631526.681 -14834193.047 10 0 59585 67500.00000 0 7715084.222 17238651.036 -17133259.564 10 0 59585 68400.00000 0 6008009.207 15788773.177 -19099220.471 10 0 59585 69300.00000 0 4019450.492 14342309.686 -20693805.727 10 0 59585 70200.00000 0 1783732.892 12955912.573 -21885964.424 10 0 59585 71100.00000 0 -654015.302 11680111.230 -22652472.691 10 0 59585 72000.00000 0 -3239489.526 10557230.900 -22978388.808 10 0 59585 72900.00000 0 -5911225.792 9619675.055 -22857346.668 10 0 59585 73800.00000 0 -8602924.035 8888643.722 -22291681.781 10 0 59585 74700.00000 0 -11245981.726 8373341.318 -21292387.266 10 0 59585 75600.00000 0 -13772132.734 8070706.892 -19878900.571 10 0 59585 76500.00000 0 -16116081.841 7965677.536 -18078724.889 10 0 59585 77400.00000 0 -18218025.255 8031973.248 -15926892.525 10 0 59585 78300.00000 0 -20025952.234 8233369.403 -13465280.577 10 0 59585 79200.00000 0 -21497631.948 8525402.258 -10741792.239 10 0 59585 80100.00000 0 -22602202.837 8857434.622 -7809419.881 10 0 59585 81000.00000 0 -23321298.458 9174993.376 -4725208.488 10 0 59585 81900.00000 0 -23649663.378 9422279.053 -1549140.064 10 0 59585 82800.00000 0 -23595234.151 9544740.361 1657038.548 10 0 59585 83700.00000 0 -23178683.092 9491603.846 4831020.988 10 0 59585 84600.00000 0 -22432445.266 9218250.914 7911155.763 10 0 59585 85500.00000 0 -21399270.811 8688341.101 10837645.431 10 0 59586 0.00000 0 -20130364.791 7875591.477 13553706.759 10 0 59586 900.00000 0 -18683193.003 6765136.198 16006670.683 10 0 59586 1800.00000 0 -17119048.398 5354409.806 18148997.247 10 0 59586 2700.00000 0 -15500478.310 3653515.298 19939191.303 10 0 59586 3600.00000 0 -13888682.001 1685062.113 21342598.259 10 0 59586 4500.00000 0 -12340986.489 -516520.098 22332066.858 10 0 59586 5400.00000 0 -10908505.625 -2906163.939 22888466.954 10 0 59586 6300.00000 0 -9634079.275 -5429794.668 23001053.186 10 0 59586 7200.00000 0 -8550577.601 -8026341.683 22667668.252 10 0 59586 8100.00000 0 -7679640.066 -10630048.775 21894782.442 10 0 59586 9000.00000 0 -7030900.700 -13172988.571 20697368.784 10 0 59586 9900.00000 0 -6601731.096 -15587678.010 19098616.145 10 0 59586 10800.00000 0 -6377511.083 -17809687.543 17129485.374 10 0 59586 11700.00000 0 -6332415.264 -19780136.797 14828116.351 10 0 59586 12600.00000 0 -6430682.151 -21447973.691 12239096.625 10 0 59586 13500.00000 0 -6628312.493 -22771942.822 9412604.861 10 0 59586 14400.00000 0 -6875125.352 -23722161.380 6403444.823 10 0 59586 15300.00000 0 -7117085.355 -24281236.869 3269987.964 10 0 59586 16200.00000 0 -7298802.856 -24444879.836 73044.624 10 0 59586 17100.00000 0 -7366101.231 -24221985.727 -3125314.554 10 0 59586 18000.00000 0 -7268542.352 -23634182.111 -6262963.988 10 0 59586 18900.00000 0 -6961802.776 -22714860.039 -9278931.737 10 0 59586 19800.00000 0 -6409799.174 -21507729.943 -12114587.423 10 0 59586 20700.00000 0 -5586472.011 -20064962.640 -14714785.881 10 0 59586 21600.00000 0 -4477150.669 -18444993.480 -17028943.850 10 0 59586 22500.00000 0 -3079440.848 -16710081.939 -19012028.353 10 0 59586 23400.00000 0 -1403595.203 -14923729.247 -20625437.110 10 0 59586 24300.00000 0 527650.087 -13148062.566 -21837753.671 10 0 59586 25200.00000 0 2679767.625 -11441295.531 -22625362.397 10 0 59586 26100.00000 0 5007632.459 -9855371.703 -22972911.205 10 0 59586 27000.00000 0 7457168.485 -8433889.629 -22873613.031 10 0 59586 27900.00000 0 9967379.980 -7210396.204 -22329380.072 10 0 59586 28800.00000 0 12472684.204 -6207119.590 -21350788.060 10 0 59586 29700.00000 0 14905448.427 -5434194.218 -19956871.170 10 0 59586 30600.00000 0 17198625.942 -4889409.692 -18174751.342 10 0 59586 31500.00000 0 19288381.199 -4558493.324 -16039109.125 10 0 59586 32400.00000 0 21116594.615 -4415913.354 -13591506.263 10 0 59586 33300.00000 0 22633142.453 -4426167.940 -10879573.166 10 0 59586 34200.00000 0 23797856.432 -4545504.383 -7956077.358 10 0 59586 35100.00000 0 24582081.285 -4723994.758 -4877891.300 10 0 59586 36000.00000 0 24969765.323 -4907879.022 -1704880.179 10 0 59586 36900.00000 0 24958038.802 -5042075.338 1501268.010 10 0 59586 37800.00000 0 24557256.603 -5072750.355 4678246.673 10 0 59586 38700.00000 0 23790504.332 -4949839.714 7764345.072 10 0 59586 39600.00000 0 22692589.624 -4629411.456 10699648.753 10 0 59586 40500.00000 0 21308562.050 -4075771.797 13427202.331 10 0 59586 41400.00000 0 19691824.649 -3263223.887 15894111.972 10 0 59586 42300.00000 0 17901917.084 -2177405.083 18052566.288 10 0 59586 43200.00000 0 16002063.722 -816146.094 19860756.414 10 0 59586 44100.00000 0 14056589.337 810184.463 21283678.167 10 0 59586 45000.00000 0 12128310.254 2678864.979 22293801.645 10 0 59586 45900.00000 0 10276009.192 4755528.146 22871596.322 10 0 59586 46800.00000 0 8552098.250 6995361.941 23005902.405 10 0 59586 47700.00000 0 7000566.300 9344755.192 22694142.067 10 0 59586 48600.00000 0 5655295.091 11743320.410 21942366.990 10 0 59586 49500.00000 0 4538812.881 14126211.070 20765141.524 10 0 59586 50400.00000 0 3661536.462 16426638.221 19185263.595 10 0 59586 51300.00000 0 3021532.092 18578483.081 17233328.342 10 0 59586 52200.00000 0 2604804.466 20518898.096 14947142.215 10 0 59586 53100.00000 0 2386101.075 22190788.971 12370998.042 10 0 59586 54000.00000 0 2330197.715 23545074.930 9554824.213 10 0 59586 54900.00000 0 2393610.916 24542633.204 6553223.548 10 0 59586 55800.00000 0 2526665.053 25155846.494 3424419.843 10 0 59586 56700.00000 0 2675826.792 25369688.496 229132.009 10 0 59586 57600.00000 0 2786208.098 25182301.612 -2970602.643 10 0 59586 58500.00000 0 2804131.652 24605042.086 -6112633.030 10 0 59586 59400.00000 0 2679649.612 23661990.172 -9135903.273 10 0 59586 60300.00000 0 2368908.341 22388945.317 -11981642.182 10 0 59586 61200.00000 0 1836258.117 20831948.178 -14594509.576 10 0 59586 62100.00000 0 1056017.374 19045391.139 -16923676.737 10 0 59586 63000.00000 0 13815.559 17089796.418 -18923819.539 10 0 59586 63900.00000 0 -1292543.561 15029354.869 -20556004.523 10 0 59586 64800.00000 0 -2852736.115 12929328.555 -21788450.471 10 0 59586 65700.00000 0 -4644106.032 10853425.853 -22597150.491 10 0 59586 66600.00000 0 -6632380.243 8861258.949 -22966342.372 10 0 59586 67500.00000 0 -8772882.599 7005989.933 -22888818.027 10 0 59586 68400.00000 0 -11012196.934 5332263.691 -22366065.920 10 0 59586 69300.00000 0 -13290210.613 3874513.708 -21408243.605 10 0 59586 70200.00000 0 -15542453.887 2655711.052 -20033980.790 10 0 59586 71100.00000 0 -17702637.821 1686608.152 -18270016.588 10 0 59586 72000.00000 0 -19705284.865 965508.148 -16150677.884 10 0 59586 72900.00000 0 -21488342.223 478568.345 -13717208.875 10 0 59586 73800.00000 0 -22995668.620 200623.717 -11016964.823 10 0 59586 74700.00000 0 -24179290.205 96494.461 -8102485.913 10 0 59586 75600.00000 0 -25001331.021 122721.007 -5030469.551 10 0 59586 76500.00000 0 -25435537.144 229651.793 -1860661.568 10 0 59586 77400.00000 0 -25468330.680 363794.235 1345311.424 10 0 59586 78300.00000 0 -25099349.803 470328.148 4525145.119 10 0 59586 79200.00000 0 -24341452.712 495674.205 7617072.019 10 0 59586 80100.00000 0 -23220186.075 390007.850 10561063.103 10 0 59586 81000.00000 0 -21772741.081 109611.674 13299992.962 10 0 59586 81900.00000 0 -20046441.630 -381033.655 15780745.698 10 0 59586 82800.00000 0 -18096828.724 -1107508.486 17955240.234 10 0 59586 83700.00000 0 -15985421.639 -2084136.877 19781355.701 10 0 59586 84600.00000 0 -13777249.598 -3313148.593 21223739.686 10 0 59586 85500.00000 0 -11538256.834 -4784355.835 22254484.593 10 0 59587 0.00000 0 -9332688.848 -6475358.539 22853659.994 10 0 59587 900.00000 0 -7220566.668 -8352271.286 23009691.873 10 0 59587 1800.00000 0 -5255356.098 -10370939.885 22719581.480 10 0 59587 2700.00000 0 -3481923.628 -12478601.014 21988961.210 10 0 59587 3600.00000 0 -1934865.649 -14615914.684 20831985.716 10 0 59587 4500.00000 0 -637277.982 -16719286.957 19271060.676 10 0 59587 5400.00000 0 399984.068 -18723387.294 17336413.962 10 0 59587 6300.00000 0 1178525.388 -20563756.780 15065516.800 10 0 59587 7200.00000 0 1712102.115 -22179399.356 12502365.320 10 0 59587 8100.00000 0 2025797.705 -23515248.613 9696635.491 10 0 59587 9000.00000 0 2154719.102 -24524407.441 6702726.924 10 0 59587 9900.00000 0 2142268.123 -25170066.838 3578713.418 10 0 59587 10800.00000 0 2038061.184 -25427023.295 385220.075 10 0 59587 11700.00000 0 1895585.396 -25282730.605 -2815751.524 10 0 59587 12600.00000 0 1769690.411 -24737841.276 -5962027.191 10 0 59587 13500.00000 0 1714022.514 -23806214.040 -8992469.507 10 0 59587 14400.00000 0 1778510.205 -22514386.328 -11848168.842 10 0 59587 15300.00000 0 2007008.435 -20900533.112 -14473592.330 10 0 59587 16200.00000 0 2435202.157 -19012955.190 -16817668.021 10 0 59587 17100.00000 0 3088859.026 -16908159.740 -18834782.709 10 0 59587 18000.00000 0 3982506.257 -14648613.278 -20485673.590 10 0 59587 18900.00000 0 5118588.907 -12300260.775 -21738196.204 10 0 59587 19800.00000 0 6487146.461 -9929914.512 -22567953.566 10 0 59587 20700.00000 0 8066022.704 -7602621.681 -22958774.103 10 0 59587 21600.00000 0 9821601.423 -5379120.452 -22903029.055 10 0 59587 22500.00000 0 11710038.285 -3313490.448 -22401783.127 10 0 59587 23400.00000 0 13678938.214 -1451095.386 -21464775.292 10 0 59587 24300.00000 0 15669408.810 173096.794 -20110230.056 10 0 59587 25200.00000 0 17618404.361 1535746.834 -18364502.628 10 0 59587 26100.00000 0 19461262.528 2625879.411 -16261564.810 10 0 59587 27000.00000 0 21134327.549 3445091.111 -13842341.498 10 0 59587 27900.00000 0 22577549.926 4007223.717 -11153910.678 10 0 59587 28800.00000 0 23736953.328 4337517.964 -8248582.722 10 0 59587 29700.00000 0 24566864.986 4471284.977 -5182877.186 10 0 59587 30600.00000 0 25031815.725 4452152.997 -2016417.478 10 0 59587 31500.00000 0 25108029.722 4329964.936 1189234.388 10 0 59587 32400.00000 0 24784441.463 4158417.101 4371779.657 10 0 59587 33300.00000 0 24063197.420 3992540.188 7469397.288 10 0 59587 34200.00000 0 22959621.750 3886130.159 10421946.740 10 0 59587 35100.00000 0 21501647.990 3889238.452 13172135.379 10 0 59587 36000.00000 0 19728741.082 4045828.170 15666627.746 10 0 59587 36900.00000 0 17690355.423 4391695.522 17857075.245 10 0 59587 37800.00000 0 15443993.756 4952744.358 19701046.809 10 0 59587 38700.00000 0 13052948.067 5743686.538 21162843.244 10 0 59587 39600.00000 0 10583816.593 6767222.844 22214180.327 10 0 59587 40500.00000 0 8103899.817 8013738.980 22834728.473 10 0 59587 41400.00000 0 5678582.939 9461529.792 23012499.482 10 0 59587 42300.00000 0 3368812.620 11077542.804 22744073.640 10 0 59587 43200.00000 0 1228771.456 12818610.826 22034663.400 10 0 59587 44100.00000 0 -696154.593 14633123.136 20898012.601 10 0 59587 45000.00000 0 -2371032.751 16463066.551 19356133.103 10 0 59587 45900.00000 0 -3772596.419 18246352.400 17438883.529 10 0 59587 46800.00000 0 -4889965.346 19919333.372 15183397.561 10 0 59587 47700.00000 0 -5724843.937 21419406.025 12633372.024 10 0 59587 48600.00000 0 -6291190.253 22687590.912 9838227.674 10 0 59587 49500.00000 0 -6614370.277 23670982.765 6852157.982 10 0 59587 50400.00000 0 -6729833.363 24324968.148 3733083.745 10 0 59587 51300.00000 0 -6681365.019 24615117.344 541533.232 10 0 59587 52200.00000 0 -6518990.985 24518670.511 -2660530.690 10 0 59587 53100.00000 0 -6296621.394 24025554.890 -5810913.621 10 0 59587 54000.00000 0 -6069535.009 23138889.375 -8848399.327 10 0 59587 54900.00000 0 -5891810.427 21874954.203 -11713942.239 10 0 59587 55800.00000 0 -5813813.576 20262626.002 -14351819.029 10 0 59587 56700.00000 0 -5879848.580 18342300.973 -16710716.438 10 0 59587 57600.00000 0 -6126072.269 16164350.456 -18744733.766 10 0 59587 58500.00000 0 -6578761.466 13787172.953 -20414280.124 10 0 59587 59400.00000 0 -7253007.348 11274923.535 -21686848.749 10 0 59587 60300.00000 0 -8151893.121 8695015.072 -22537653.181 10 0 59587 61200.00000 0 -9266190.802 6115495.362 -22950112.765 10 0 59587 62100.00000 0 -10574591.037 3602409.249 -22916178.007 10 0 59587 63000.00000 0 -12044457.336 1217255.390 -22436489.395 10 0 59587 63900.00000 0 -13633073.952 -985356.596 -21520366.461 10 0 59587 64800.00000 0 -15289335.766 -2959751.453 -20185627.216 10 0 59587 65700.00000 0 -16955809.791 -4670851.401 -18458241.275 10 0 59587 66600.00000 0 -18571082.057 -6095388.364 -16371823.299 10 0 59587 67500.00000 0 -20072291.456 -7222615.692 -13966976.517 10 0 59587 68400.00000 0 -21397744.054 -8054490.828 -11290499.061 10 0 59587 69300.00000 0 -22489497.716 -8605322.629 -8394468.769 10 0 59587 70200.00000 0 -23295808.094 -8900899.763 -5335224.560 10 0 59587 71100.00000 0 -23773332.729 -8977138.527 -2172264.626 10 0 59587 72000.00000 0 -23889000.226 -8878308.719 1032916.404 10 0 59587 72900.00000 0 -23621465.673 -8654914.071 4218028.076 10 0 59587 73800.00000 0 -22962091.012 -8361318.237 7321198.489 10 0 59587 74700.00000 0 -21915409.245 -8053217.857 10282178.177 10 0 59587 75600.00000 0 -20499053.196 -7785070.508 13043509.741 10 0 59587 76500.00000 0 -18743152.065 -7607586.854 15551640.420 10 0 59587 77400.00000 0 -16689221.382 -7565393.237 17757956.093 10 0 59587 78300.00000 0 -14388592.954 -7694963.467 19619717.153 10 0 59587 79200.00000 0 -11900450.377 -8022906.841 21100878.877 10 0 59587 80100.00000 0 -9289551.818 -8564684.310 22172781.233 10 0 59587 81000.00000 0 -6623734.356 -9323806.607 22814695.811 10 0 59587 81900.00000 0 -3971302.767 -10291547.969 23014220.249 10 0 59587 82800.00000 0 -1398410.257 -11447187.651 22767513.315 10 0 59587 83700.00000 0 1033461.498 -12758769.537 22079366.669 10 0 59587 84600.00000 0 3269819.829 -14184348.744 20963112.168 10 0 59587 85500.00000 0 5265181.241 -15673673.929 19440366.416 10 0 59588 0.00000 0 6984711.659 -17170235.803 17540617.294 10 0 59588 900.00000 0 8405420.681 -18613598.020 15300658.677 10 0 59588 1800.00000 0 9516858.906 -19941911.766 12763886.127 10 0 59588 2700.00000 0 10321293.292 -21094512.208 9979462.850 10 0 59588 3600.00000 0 10833351.535 -22014486.425 7001373.684 10 0 59588 4500.00000 0 11079151.922 -22651106.027 3887383.796 10 0 59588 5400.00000 0 11094955.488 -22962022.008 697921.923 10 0 59588 6300.00000 0 10925397.574 -22915129.033 -2505090.502 10 0 59588 7200.00000 0 10621373.654 -22490019.976 -5659441.542 10 0 59588 8100.00000 0 10237669.057 -21678968.454 -8703838.734 10 0 59588 9000.00000 0 9830433.168 -20487396.854 -11579103.040 10 0 59588 9900.00000 0 9454605.386 -18933808.899 -14229322.983 10 0 59588 10800.00000 0 9161402.317 -17049188.367 -16602946.102 10 0 59588 11700.00000 0 8995973.123 -14875887.982 -18653786.078 10 0 59588 12600.00000 0 8995322.910 -12466054.058 -20341925.515 10 0 59588 13500.00000 0 9186592.674 -9879651.931 -21634496.582 10 0 59588 14400.00000 0 9585769.284 -7182173.958 -22506324.185 10 0 59588 15300.00000 0 10196880.753 -4442125.229 -22940419.020 10 0 59588 16200.00000 0 11011711.559 -1728391.351 -22928310.879 10 0 59588 17100.00000 0 12010050.819 892402.463 -22470215.655 10 0 59588 18000.00000 0 13160463.559 3358431.327 -21575032.705 10 0 59588 18900.00000 0 14421553.237 5615004.313 -20260172.485 10 0 59588 19800.00000 0 15743662.854 7616595.088 -18551217.646 10 0 59588 20700.00000 0 17070943.336 9328485.495 -16481424.058 10 0 59588 21600.00000 0 18343702.251 10727954.332 -14091071.351 10 0 59588 22500.00000 0 19500933.864 11804962.712 -11426675.597 10 0 59588 23400.00000 0 20482923.728 12562308.505 -8540079.638 10 0 59588 24300.00000 0 21233817.694 13015244.879 -5487439.047 10 0 59588 25200.00000 0 21704046.666 13190580.577 -2328123.921 10 0 59588 26100.00000 0 21852504.406 13125301.433 876441.480 10 0 59588 27000.00000 0 21648386.302 12864772.924 4063977.995 10 0 59588 27900.00000 0 21072611.295 12460601.155 7172565.773 10 0 59588 28800.00000 0 20118766.975 11968243.926 10141849.175 10 0 59588 29700.00000 0 18793538.052 11444473.889 12914208.561 10 0 59588 30600.00000 0 17116600.194 10944801.686 15435876.139 10 0 59588 31500.00000 0 15119983.794 10520968.243 17657974.237 10 0 59588 32400.00000 0 12846934.248 10218612.141 19537456.399 10 0 59588 33300.00000 0 10350316.216 10075210.143 21037933.767 10 0 59588 34200.00000 0 7690628.166 10118377.263 22130371.573 10 0 59588 35100.00000 0 4933709.235 10364597.396 22793643.327 10 0 59588 36000.00000 0 2148232.931 10818437.484 23014932.888 10 0 59588 36900.00000 0 -596909.288 11472277.910 22789977.468 10 0 59588 37800.00000 0 -3235227.268 12306570.444 22123147.462 10 0 59588 38700.00000 0 -5705147.049 13290613.165 21027361.807 10 0 59588 39600.00000 0 -7952318.417 14383810.407 19523840.442 10 0 59588 40500.00000 0 -9931620.780 15537365.619 17641698.280 10 0 59588 41400.00000 0 -11608785.344 16696337.081 15417387.853 10 0 59588 42300.00000 0 -12961567.106 17801971.070 12894000.596 10 0 59588 43200.00000 0 -13980418.834 18794215.367 10120439.417 10 0 59588 44100.00000 0 -14668639.584 19614308.084 7150477.623 10 0 59588 45000.00000 0 -15041992.079 20207333.241 4041721.797 10 0 59588 45900.00000 0 -15127805.436 20524635.544 854498.179 10 0 59588 46800.00000 0 -14963601.316 20525992.267 -2349316.158 10 0 59588 47700.00000 0 -14595301.573 20181450.027 -5507494.589 10 0 59588 48600.00000 0 -14075093.331 19472748.041 -8558671.161 10 0 59588 49500.00000 0 -13459041.896 18394266.665 -11443535.931 10 0 59588 50400.00000 0 -12804552.735 16953459.929 -14105991.614 10 0 59588 51300.00000 0 -12167790.210 15170752.409 -16494248.621 10 0 59588 52200.00000 0 -11601162.647 13078903.344 -18561836.783 10 0 59588 53100.00000 0 -11150980.515 10721863.357 -20268513.615 10 0 59588 54000.00000 0 -10855387.173 8153170.467 -21581051.290 10 0 59588 54900.00000 0 -10742650.086 5433951.371 -22473886.791 10 0 59588 55800.00000 0 -10829885.133 2630610.690 -22929622.512 10 0 59588 56700.00000 0 -11122268.303 -187696.206 -22939367.489 10 0 59588 57600.00000 0 -11612768.498 -2951702.083 -22502912.598 10 0 59588 58500.00000 0 -12282413.059 -5594668.936 -21628736.169 10 0 59588 59400.00000 0 -13101075.211 -8054921.829 -20333839.849 10 0 59588 60300.00000 0 -14028750.428 -10278170.421 -18643417.679 10 0 59588 61200.00000 0 -15017268.059 -12219521.897 -16590364.728 10 0 59588 62100.00000 0 -16012366.003 -13845102.038 -14214634.733 10 0 59588 63000.00000 0 -16956040.780 -15133217.564 -11562459.182 10 0 59588 63900.00000 0 -17789073.478 -16075012.084 -8685443.254 10 0 59588 64800.00000 0 -18453624.568 -16674589.482 -5639556.451 10 0 59588 65700.00000 0 -18895787.483 -16948600.933 -2484038.021 10 0 59588 66600.00000 0 -19067992.637 -16925314.473 719760.877 10 0 59588 67500.00000 0 -18931159.853 -16643207.896 3909575.077 10 0 59588 68400.00000 0 -18456507.953 -16149145.883 7023439.435 10 0 59588 69300.00000 0 -17626944.846 -15496219.624 10000894.707 10 0 59588 70200.00000 0 -16437979.358 -14741341.326 12784161.485 10 0 59588 71100.00000 0 -14898116.218 -13942695.969 15319259.234 10 0 59588 72000.00000 0 -13028717.544 -13157158.323 17557048.805 10 0 59588 72900.00000 0 -10863336.439 -12437784.236 19454178.660 10 0 59588 73800.00000 0 -8446550.248 -11831481.696 20973917.219 10 0 59588 74700.00000 0 -5832341.833 -11376959.156 22086855.997 10 0 59588 75600.00000 0 -3082095.611 -11103036.775 22771471.019 10 0 59588 76500.00000 0 -262290.812 -11027390.747 23014532.546 10 0 59588 77400.00000 0 2558013.236 -11155782.826 22811356.025 10 0 59588 78300.00000 0 5309796.759 -11481806.852 22165890.011 10 0 59588 79200.00000 0 7926696.893 -11987162.702 21090639.621 10 0 59588 80100.00000 0 10347515.528 -12642446.205 19606426.931 10 0 59588 81000.00000 0 12518515.015 -13408422.187 17741992.599 10 0 59588 81900.00000 0 14395407.688 -14237727.779 15533445.709 10 0 59588 82800.00000 0 15944957.484 -15076935.068 13023571.698 10 0 59588 83700.00000 0 17146127.875 -15868887.051 10261010.850 10 0 59588 84600.00000 0 17990728.929 -16555209.209 7299322.344 10 0 59588 85500.00000 0 18483536.871 -17078891.260 4195951.344 99